EW2631 Weather Reports


time (UTC)temp
F
wind
direction
speed
knots
gust
knots
rain 1hr
in
rain 24hr
in
rain mn
in
humidity
%
barometer
mb
20260906190044 66 103 0.0 1.7 0.11 0.11 0.11 94 1015.5
20260906184544 66 89 0.0 2.6 0.11 0.11 0.11 95 1015.5
20260906183053 66 68 0.9 5.2 0.10 0.10 0.10 94 1015.7
20260906181546 68 64 2.6 5.2 0.00 0.00 0.00 90 1016.0
20260906180038 69 49 1.7 7.0 0.00 0.00 0.00 88 1015.7
20260906174531 74 60 2.6 7.8 0.00 0.00 0.00 78 1016.0
20260906173028 82 143 0.0 0.9 0.00 0.00 0.00 84 1014.8
20260906171526 82 143 0.0 1.7 0.00 0.00 0.00 85 1014.3
20260906170024 82 309 0.0 3.5 0.00 0.00 0.00 86 1013.9
20260906164524 81 138 0.0 1.7 0.00 0.00 0.00 87 1014.5
20260906163028 81 146 0.0 3.5 0.00 0.00 0.00 87 1014.8
20260906161515 81 198 0.9 3.5 0.00 0.00 0.00 88 1014.5
20260906160113 80 135 0.0 2.6 0.00 0.00 0.00 89 1014.4
20260906154509 79 142 0.0 5.2 0.00 0.05 0.00 91 1014.3
20260906153006 78 146 0.0 7.0 0.00 0.05 0.00 92 1013.8
20260906151505 78 274 0.0 2.6 0.00 0.05 0.00 93 1014.0
20260906150002 78 133 0.0 4.3 0.00 0.16 0.00 94 1013.5
20260906144608 77 97 0.0 3.5 0.00 0.16 0.00 95 1013.5
20260906143105 77 125 0.9 5.2 0.00 0.16 0.00 95 1013.6
20260906141558 76 127 0.9 4.3 0.00 0.16 0.00 96 1013.9
20260906140105 76 131 0.0 5.2 0.00 0.16 0.00 97 1014.0
20260906134608 76 75 0.0 3.5 0.00 0.20 0.00 97 1013.9
20260906133055 75 104 0.9 5.2 0.00 0.20 0.00 98 1013.8
20260906131550 75 143 0.0 2.6 0.00 0.20 0.00 98 1013.8
20260906124546 75 128 0.0 2.6 0.00 2.35 0.00 98 1013.7
20260906123046 75 66 0.0 2.6 0.00 2.35 0.00 98 1013.6
20260906121547 74 146 0.0 3.5 0.00 2.35 0.00 99 1013.5
20260906120041 74 148 0.0 2.6 0.00 2.35 0.00 99 1013.4
20260906114540 74 155 0.0 2.6 0.00 2.43 0.00 99 1013.3
20260906113040 74 153 0.0 1.7 0.00 2.43 0.00 99 1013.1
20260906111538 73 120 0.0 2.6 0.00 2.43 0.00 99 1013.0
20260906110036 73 71 0.0 2.6 0.00 2.43 0.00 99 1013.0
20260906104536 73 72 0.0 2.6 0.00 2.43 0.00 98 1012.9
20260906103035 73 144 0.0 1.7 0.00 2.43 0.00 98 1012.9
20260906101535 72 144 0.0 0.9 0.00 2.43 0.00 98 1013.0
20260906100040 73 144 0.0 0.0 0.00 2.43 0.00 98 1012.9
20260906094532 73 144 0.0 0.9 0.00 2.43 0.00 97 1013.0
20260906093046 74 144 0.0 0.9 0.00 2.43 0.00 98 1013.1
20260906091531 74 144 0.0 0.9 0.00 2.43 0.00 98 1013.2
20260906090030 74 143 0.0 1.7 0.00 2.43 0.00 98 1013.2
20260906084529 74 138 0.0 0.9 0.00 2.43 0.00 98 1013.1
20260906083029 74 130 0.0 1.7 0.00 2.43 0.00 98 1013.0
20260906081544 73 133 0.0 0.9 0.00 2.43 0.00 98 1012.8
20260906080027 73 133 0.0 0.9 0.00 2.43 0.00 98 1012.5
20260906074526 73 133 0.0 0.9 0.00 2.43 0.00 98 1012.7
20260906073041 74 133 0.0 0.9 0.00 2.43 0.00 98 1012.9
20260906071523 74 133 0.0 0.9 0.00 2.43 0.00 98 1012.9
20260906070034 74 133 0.0 1.7 0.00 2.43 0.00 98 1012.9
20260906064521 74 133 0.0 0.0 0.00 2.43 0.00 98 1013.0
20260906063021 74 133 0.0 0.0 0.00 2.43 0.00 97 1013.2
20260906061519 74 133 0.0 0.0 0.00 2.43 0.00 97 1013.3
20260906060017 74 133 0.0 0.9 0.00 2.43 0.00 97 1013.1
20260906054521 74 133 0.0 1.7 0.00 2.43 0.00 98 1013.2
20260906053013 73 133 0.0 0.9 0.00 2.43 0.00 97 1013.2
20260906051515 73 133 0.0 0.9 0.00 2.43 0.00 97 1013.2
20260906050006 73 133 0.0 0.9 0.00 2.43 2.43 97 1013.2
20260906044505 73 133 0.0 0.0 0.00 2.43 2.43 96 1013.3
20260906043005 73 133 0.0 0.0 0.00 2.43 2.43 96 1013.5
20260906041505 74 133 0.0 0.0 0.00 2.43 2.43 95 1013.3
20260906040004 74 133 0.0 0.0 0.00 2.43 2.43 94 1013.4
20260906034503 74 133 0.0 0.9 0.00 2.43 2.43 94 1013.3
20260906033003 74 133 0.0 0.9 0.00 2.43 2.43 94 1013.2
20260906031502 74 133 0.0 0.9 0.00 2.43 2.43 94 1013.2
20260906030002 74 133 0.0 0.9 0.00 2.43 2.43 93 1013.0
20260906024502 74 134 0.0 0.9 0.00 2.43 2.43 93 1012.9
20260906023000 75 134 0.0 0.9 0.00 2.43 2.43 92 1012.8
20260906021500 75 99 0.0 0.9 0.00 2.43 2.43 91 1012.8
20260906020100 75 99 0.0 0.9 0.00 2.43 2.43 91 1012.6
20260906014623 75 99 0.0 1.7 0.00 2.43 2.43 90 1012.4
20260906013100 76 99 0.0 1.7 0.00 2.43 2.43 89 1012.3
20260906011600 76 99 0.0 0.9 0.00 2.43 2.43 88 1012.2
20260906010058 77 99 0.0 0.9 0.00 2.43 2.43 86 1012.1
20260906004609 78 99 0.0 1.7 0.00 2.43 2.43 84 1012.0
20260906003058 79 97 0.0 2.6 0.00 2.43 2.43 81 1011.8
20260906001556 80 124 0.0 2.6 0.00 2.43 2.43 79 1011.8
20260906000106 81 100 0.9 2.6 0.00 2.43 2.43 75 1011.8
20260905234557 83 120 0.0 2.6 0.00 2.43 2.43 73 1011.9
20260905233056 84 107 0.9 3.5 0.00 2.43 2.43 70 1011.9
20260905231554 85 87 0.0 5.2 0.00 2.43 2.43 69 1011.8
20260905230051 85 74 0.9 7.0 0.00 2.43 2.43 67 1011.7
20260905224603 85 133 0.9 5.2 0.00 2.43 2.43 66 1011.8
20260905223048 86 131 0.0 4.3 0.00 2.43 2.43 64 1011.6
20260905221547 86 76 1.7 5.2 0.00 2.43 2.43 62 1011.5
20260905220045 87 83 0.9 6.1 0.00 2.43 2.43 59 1011.3
20260905214546 87 158 0.9 8.7 0.00 2.43 2.43 58 1011.3
20260905213043 88 129 1.7 6.1 0.00 2.43 2.43 56 1011.4
20260905211543 88 136 0.9 6.1 0.00 2.43 2.43 54 1011.3
20260905210041 89 126 0.9 6.1 0.00 2.43 2.43 54 1011.2
20260905204540 89 139 0.9 4.3 0.00 2.43 2.43 55 1010.9
20260905203039 88 103 0.9 5.2 0.00 2.43 2.43 56 1010.9
20260905201537 87 127 0.9 5.2 0.00 2.43 2.43 59 1010.8
20260905200045 86 113 0.9 7.0 0.00 2.43 2.43 59 1010.8
20260905194534 86 98 1.7 7.0 0.00 2.43 2.43 61 1010.8
20260905193033 87 131 1.7 5.2 0.00 2.43 2.43 59 1010.8
20260905191537 87 122 0.9 6.1 0.00 2.43 2.43 59 1010.8